This demonstration page uses our WeatherBlox Daily Observations layout. Learn more.

Left ArrowRight Arrow

38.88101, -77.10428

Hourly Observations for July 6, 2016

Temp ( °F °C ) Dew Point ( °F °C ) Humidity (%) Winds ( mph kmh ) Pressure ( in mb ) Visibility ( mi km ) Precip ( " mm )
1:52 am 01:52 Mostly Clear 79 26.1 75 23.9 88 88 N 3 6 29.88 1012 10 16.0934 0 0
8:52 am 08:52 Mostly Cloudy 82 27.8 73 22.8 74 74 N 7 11 29.93 1013 10 16.0934 0 0
9:52 am 09:52 Mostly Cloudy 84 28.9 73 22.8 70 70 NNW 7 11 29.92 1013 10 16.0934 0 0
10:18 am 10:18 Mostly Cloudy 86 30 73 22.8 65 65 Calm 29.91 1013 10 16.0934 0 0
10:52 am 10:52 Mostly Cloudy 88 31.1 74 23.3 63 63 N 5 7 29.91 1013 10 16.0934 0 0
11:52 am 11:52 Mostly Cloudy 89 31.7 72 22.2 57 57 N 6 9 29.91 1013 10 16.0934 0 0
12:15 pm 12:15 Mostly Cloudy 89 31.7 72 22.2 57 57 NNE 9 15 29.91 1013 10 16.0934 0 0
12:52 pm 12:52 Mostly Cloudy 89 31.7 70 21.1 53 53 VRB 7 11 29.91 1013 10 16.0934 0 0
1:52 pm 13:52 Mostly Cloudy 90 32.2 73 22.8 58 58 VRB 3 6 29.89 1012 10 16.0934 0 0
2:46 pm 14:46 Mostly Cloudy 91 33 72 22 52 52 VRB 6 9 29.88 1012 10 16.0934 0 0
2:52 pm 14:52 Mostly Cloudy 92 33.3 72 22.2 52 52 E 5 7 29.87 1012 10 16.0934 0 0
3:52 pm 15:52 Mostly Cloudy 91 32.8 69 20.6 49 49 VRB 3 6 29.85 1011 10 16.0934 0 0
4:52 pm 16:52 Mostly Cloudy 94 34.4 69 20.6 44 44 NNE 3 6 29.83 1010 10 16.0934 0 0
5:52 pm 17:52 Mostly Cloudy 93 33.9 69 20.6 46 46 W 6 9 29.83 1010 10 16.0934 0 0
6:52 pm 18:52 Partly Cloudy 91 32.8 70 21.1 50 50 SW 5 7 29.83 1010 10 16.0934 0 0
7:52 pm 19:52 Partly Cloudy 87 30.6 73 22.8 63 63 SSE 6 9 29.84 1010 10 16.0934 0 0
8:52 pm 20:52 Partly Cloudy 87 30.6 71 21.7 59 59 SSW 7 11 29.84 1011 10 16.0934 0 0
9:52 pm 21:52 Mostly Clear 84 28.9 73 22.8 70 70 SSW 7 11 29.85 1011 10 16.0934 0 0
10:52 pm 22:52 Mostly Clear 84 28.9 73 22.8 70 70 SSW 6 9 29.86 1011 10 16.0934 0 0
11:52 pm 23:52 Mostly Clear 82 27.8 74 23.3 77 77 S 7 11 29.86 1011 10 16.0934 0 0

Powered by AerisWeather